Regional Weather Roundup
Issued by NWS

Home | Current Version | Previous Version | Text Only | Print | Product List | Glossary On
Versions: 1 2 3 4 5 6 7 8 9 10 11 12 13 14 15 16 17 18 19 20 21 22 23 24 25 26 27 28 29 30 31 32 33 34 35 36 37 38 39 40 41 42 43 44 45 46 47 48 49 50
099
ASUS43 KMPX 202001
RWRMN
WEATHER ROUNDUP FOR MINNESOTA
NATIONAL WEATHER SERVICE TWIN CITIES/CHANHASSEN MN
200 PM CST MON FEB 20 2017


NOTE: "FAIR" INDICATES FEW OR NO CLOUDS BELOW 12,000 FEET WITH NO
SIGNIFICANT WEATHER AND/OR OBSTRUCTIONS TO VISIBILITY. N/A MEANS
CURRENT SKY AND/OR WEATHER CONDITIONS ARE NOT AVAILABLE.

MNZ060>063-068>070-202100-
   Twin Cities Metro

CITY           SKY/WX    TMP DP  RH WIND       PRES   REMARKS
TWIN CITIES    LGT RAIN  51  49  92 SE14      29.67F
ST PAUL        LGT RAIN  50  50 100 SE13      29.69F FOG
CRYSTAL        LGT RAIN  63  47  55 SE10      29.65F
BLAINE         LGT RAIN  52  52 100 SE12G17   29.67F
LAKEVILLE      RAIN      50  50 100 S9G17     29.68F
EDEN PRAIRIE   LGT RAIN  51  50  96 SE9       29.65F FOG
SOUTH ST PAUL  LGT RAIN  50  49  97 SE9       29.69F
$$
MNZ001>005-007-008-013>017-022>024-027-028-202100-
   Northwest Minnesota

CITY           SKY/WX    TMP DP  RH WIND       PRES   REMARKS
BEMIDJI        CLOUDY    42  42 100 S9        29.59F FOG
HALLOCK        LGT RAIN  36  36 100 NW8       29.58F
ROSEAU         LGT RAIN  39  36  87 S3        29.55F VSB<1/4
WARROAD        LGT RAIN  43  37  81 CALM      29.56F
THIEF RVR FALL LGT RAIN  38  38 100 W9        29.57F VSB 1/4
CROOKSTON      CLOUDY    36  36 100 NW17      29.60S FOG
FOSSTON        FOG       43  43 100 S7        29.57F VSB 3/4
DETROIT LAKES  LGT RAIN  45  45 100 SE5       29.58F VSB<1/4
MOORHEAD       DRZL/FOG  39  39 100 NW9       29.61S VSB 1
PARK RAPIDS    FOG       45  43  93 S8        29.59F VSB<1/4
MAHNOMEN       CLOUDY    44  44  98 S8        29.57F FOG
$$
MNZ006-009>011-018-025>026-202100-
   North Central Minnesota

CITY           SKY/WX    TMP DP  RH WIND       PRES   REMARKS
BAUDETTE       LGT RAIN  41  40  96 SE7       29.56F FOG
FLAG ISLAND    RAIN      37  36  93 S8        29.55F VSB 1/4
INTL FALLS     LGT RAIN  44  42  93 SE8       29.61F FOG
WASKISH        RAIN      45  43  93 S7        29.59F
BIG FORK       HVY RAIN  45  43  93 SE8       29.63F
LONGVILLE      RAIN      45  45 100 E7        29.60F
GRAND RAPIDS   RAIN      43  42  97 SE9       29.66F FOG
CRANE LAKE     RAIN      43  43 100 S3        29.69R
ORR            DRIZZLE   43  39  87 SE6       29.63F
COOK           LGT RAIN  43  43 100 SE8       29.67F
WALKER         DRIZZLE   44  43  96 S8        29.60S
$$
MNZ012-019>021-037-202100-
   Northeast Minnesota

CITY           SKY/WX    TMP DP  RH WIND       PRES   REMARKS
DULUTH         LGT RAIN  40  39  97 E13       29.71F FOG
ELY            DRIZZLE   43  39  87 SE10G20   29.68F
HIBBING        LGT RAIN  40  40 100 SE9       29.67F FOG
EVELETH        RAIN      42  41  93 SE7       29.70F
DULUTH HARBOR  LGT RAIN  36  34  93 NE14      29.74F
TWO HARBORS    LGT RAIN  43  37  81 NE7       29.73F
SILVER BAY     RAIN      37  37 100 NE12      29.73F
GRAND MARAIS     N/A     42  34  73 NE12      29.83F
G MARAIS ARPRT CLOUDY    37  32  81 E7        29.80F
$$
MNZ029>031-032-039>041-046>048-054>057-064-202100-
   West Central Minnesota

CITY           SKY/WX    TMP DP  RH WIND       PRES   REMARKS
FERGUS FALLS   FOG       52  52 100 S7        29.60F VSB<1/4
WHEATON        CLOUDY    52  48  87 S7        29.61R FOG
MORRIS         LGT RAIN  52  52 100 SE7       29.58F VSB 1/4
ALEXANDRIA     LGT RAIN  50  50 100 S8        29.61F VSB 1
ELBOW LAKE     LGT RAIN  50  50 100 E12       29.57F VSB 1/4
WADENA         LGT RAIN  46  46 100 S9        29.60F VSB 1/2
GLENWOOD       LGT RAIN  52  50  93 S8        29.62F VSB 1/2
APPLETON       DRIZZLE   54  52  94 SE5       29.59F
BENSON         DRIZZLE   55  48  76 SW9       29.63F
ORTONVILLE     FOG       52  50  93 CALM      29.60S VSB 1/2
WILLMAR        LGT RAIN  54  54 100 S3        29.64F
$$
MNZ033>034-036-042>043-049>051-058-059-202100-
   Central Minnesota

CITY           SKY/WX    TMP DP  RH WIND       PRES   REMARKS
ST CLOUD       RAIN      48  48 100 SE9       29.64F FOG
SAUK CENTRE    RAIN      48  48  99 SE6       29.62F
PAYNESVILLE    LGT RAIN  49  49 100 SE5       29.63F
AITKIN         MIX PCPN  48  45  87 SE6       29.63F
PINE RIVER     LGT RAIN  45  45 100 S5        29.67R VSB 3/4
BRAINERD       RAIN      47  46  97 SE8       29.62F FOG
STAPLES        RAIN      46  46 100 SE7       29.61F
LONG PRAIRIE   HVY RAIN  46  46 100 SE6       29.63S VSB 3/4
LITTLE FALLS   RAIN      46  46 100 SE10      29.64F
LITCHFIELD     DRIZZLE   52  50  93 SE3       29.63F
BUFFALO        RAIN      49  47  93 SE5       29.65F
MAPLE LAKE     RAIN      49  49  99 SE6       29.65F VSB 1
HUTCHINSON     RAIN      52  52 100 S6        29.65F
$$
MNZ037-044-045-052-053-202100-
   East Central Minnesota

CITY           SKY/WX    TMP DP  RH WIND       PRES   REMARKS
PRINCETON      RAIN      52  48  87 SE7       29.65F
MORA           RAIN      41  41 100 SE8       29.68F
CAMBRIDGE      RAIN      48  43  81 SE7       29.65F
RUSH CITY      RAIN      48  46  93 SE12      29.67F
MOOSE LAKE     RAIN      39  37  93 NE6       29.65F VSB 1/2
HINCKLEY       RAIN      45  45 100 SE5       29.68F
CLOQUET        RAIN      37  37 100 E9        29.69F
MCGREGOR       CLOUDY    45  43  93 SE8       29.66F
$$
MNZ071>073-080-081-089-090-097-098-202100-
   Southwest Minnesota

CITY           SKY/WX    TMP DP  RH WIND       PRES   REMARKS
MONTEVIDEO     DRIZZLE   54  54 100 S10       29.61F
GRANITE FALLS  LGT RAIN  54  53  97 SE10      29.64S
CANBY          CLOUDY    57  53  86 SW7       29.62R FOG
MARSHALL       PTSUNNY   56  53  90 S12       29.59F
REDWOOD FALLS  LGT RAIN  54  52  93 S12       29.64F FOG
OLIVIA         RAIN      54  52  94 S10       29.63F
PIPESTONE      CLOUDY    55  52  88 SW12      29.65R FOG
WINDOM         LGT RAIN  54  54 100 SW16G22   29.68R
WORTHINGTON    CLOUDY    55  54  96 SW15      29.66F FOG
JACKSON        RAIN      52  52 100 SW15      29.70R
TRACY          LGT RAIN  56  55  94 S12G17    29.62F
SLAYTON        CLOUDY    54  53  97 S12       29.62F FOG
$$
MNZ065>067-074>077-082>085-091>093-202100-
   South Central Minnesota

CITY           SKY/WX    TMP DP  RH WIND       PRES   REMARKS
MANKATO        LGT RAIN  52  51  97 S13G21    29.66F FOG
NEW ULM        RAIN      54  54 100 S12       29.64F
ST JAMES       CLOUDY    55  54  94 S15       29.67S
FAIRMONT       LGT RAIN  55  54  96 S15       29.68F
GLENCOE        RAIN      52  52 100 S6        29.64F
FARIBAULT      RAIN      52  52 100 S14G23    29.70F
OWATONNA       RAIN      52  48  87 S16G23    29.69F
WASECA         LGT RAIN  52  50  93 SE15G22   29.70F
ALBERT LEA     RAIN      52  52 100 S12       29.70F
$$
MNZ078>079-086>088-094>096-202100-
   Southeast Minnesota

CITY           SKY/WX    TMP DP  RH WIND       PRES   REMARKS
ROCHESTER      LGT RAIN  49  49 100 S16       29.73F FOG
RED WING       RAIN      52  48  87 S15       29.73S
WINONA         RAIN      52  50  93 SE8       29.78F
AUSTIN         RAIN      52  48  87 S9G18     29.71F
PRESTON        LGT RAIN  49  48  96 SE16      29.76F
$$
ABBREVIATIONS USED IN REMARKS
   TC - TEMPERATURES IN CELSIUS
  WCI - WIND CHILL INDEX
   HX - HEAT INDEX
  VSB - VISIBILITY
$$




USA.gov is the U.S. government's official web portal to all federal, state and local government web resources and services.